ARIANE 5 R/B, 33057

Orbit data source: Space-Track

ARIANE 5 R/B, 33057 is space debris in HEO originally from a launch on Thu, 12 Jun 2008 UTC launched from the French Guiana (FRGUI). Debris objects in space refer to the collection of defunct objects orbiting the Earth. Examples of debris include non-operational satellites, rocket bodies, and fragments generated from explosions, collisions, or faulty payload assembly.

Loading next visibility...
Identifier
33057, 2008-030C
Orbit
HEO
Country
Flag of FRFR
Related business
Manufacturer
EADS/LV
Mission
Spacecraft
Bus & Motor
ESC-A, Unknown motor
Mass
~5,000 kg wet, ~5,000 kg dry
Launch date (UTC)
2008-06-12 (18 years ago)
Launch vehicle
Unknown
Launch site
French Guiana (FRGUI)
Object type
Payload
Rocket body
Debris
Shape & HBR
Cyl + 1 Nozzle, 4.4 m
Radar Cross Section
41.627 m², Large (>1 m²)

Expand to show TLE details & history
Last TLE update: 11 hours ago

TLE from 11 hours ago
0 ARIANE 5 R/B
1 33057U 08030C   26255.27125444  .00002552  00000-0  71357-3 0  9998
2 33057   1.7728 326.1651 7017939 347.2172   1.7811  2.61429315161505
Epoch: 2026-09-12T06:30Z
TLE epoch observation values (Epoch: 2026-09-12T06:30:36.383Z)
Latitude
-0.00001°
Longitude
-122.59962°
Altitude
321.007 km
Speed
10.054 km/s
True Right ascension
21h 45m 20s
True Declination
0° 00' 00"
Sunlit
Object was in full shadow at epoch
Visualization orbit readout
Latitude
Unknown
Longitude
Unknown
Altitude
Unknown
Speed
Unknown
Apparent Right ascension
Unknown
Apparent Declination
Unknown
Sunlit
N/A
Visualization observer readout
Local Sidereal Time
09:33:12
Azimuth
Unknown
Elevation
Unknown
Doppler factor
Unknown
Orbital elements
Apogee altitude
31,510.838 km
Perigee altitude
261.165 km
Semi-major axis
22,264.138 km
Eccentricity
0.70179
Inclination
1.7728°
RAAN
326.1651°
Arg. of periapsis
347.2172°
True anomaly
14.14854°
Mean anomaly
1.7811°
Eccentric anomaly
5.94759°
Mean motion
0.65333 °/min
Orbital period
551.02 mins
BSTAR
0.00071357
Loading maneuver chart data...
Computing Atmospheric mass density...
Loading historical data...
Loading historical data...
Loading historical data...
Loading historical data...
Loading historical data...
Loading historical data...
Loading historical data...

Documentation

Showing up to 5 results
|